Time,TemperatureF,DewpointF,PressureIn,WindDirection,WindDirectionDegrees,WindSpeedMPH,WindSpeedGustMPH,Humidity,HourlyPrecipIn,Conditions,Clouds,dailyrainin,SoftwareType,DateUTC
2013-08-14 00:02:00,84.7,71.6,29.89,SSE,148,3.5,3.5,65,0.00,CLR,,0.00,WeatherDisplay:10.37,2013-08-14 05:02:00,
2013-08-14 00:07:00,84.5,71.4,29.89,South,170,4.6,4.6,65,0.00,CLR,,0.00,WeatherDisplay:10.37,2013-08-14 05:07:00,
2013-08-14 00:12:00,84.3,71.7,29.89,SSW,194,4.6,4.6,66,0.00,CLR,,0.00,WeatherDisplay:10.37,2013-08-14 05:12:00,
2013-08-14 00:17:00,84.1,71.5,29.89,South,186,1.2,1.2,66,0.00,CLR,,0.00,WeatherDisplay:10.37,2013-08-14 05:17:00,
2013-08-14 00:22:00,83.9,71.3,29.90,South,177,3.5,3.5,66,0.00,CLR,,0.00,WeatherDisplay:10.37,2013-08-14 05:22:00,
2013-08-14 00:27:00,83.8,71.7,29.89,SSE,168,4.6,4.6,67,0.00,CLR,,0.00,WeatherDisplay:10.37,2013-08-14 05:27:00,
2013-08-14 00:32:00,83.6,71.9,29.90,SE,138,3.5,3.5,68,0.00,CLR,,0.00,WeatherDisplay:10.37,2013-08-14 05:32:00,
2013-08-14 00:37:00,83.4,71.7,29.90,South,190,2.3,2.3,68,0.00,CLR,,0.00,WeatherDisplay:10.37,2013-08-14 05:37:00,
2013-08-14 00:42:00,83.4,71.7,29.90,SSW,194,1.2,1.2,68,0.00,CLR,,0.00,WeatherDisplay:10.37,2013-08-14 05:42:00,
2013-08-14 00:47:00,83.3,71.6,29.90,SW,215,2.3,2.3,68,0.00,CLR,,0.00,WeatherDisplay:10.37,2013-08-14 05:47:00,
2013-08-14 00:52:00,83.1,71.9,29.90,SSW,200,3.5,3.5,69,0.00,CLR,,0.00,WeatherDisplay:10.37,2013-08-14 05:52:00,
2013-08-14 00:57:00,83.0,71.8,29.90,SSW,201,3.0,3.0,69,0.00,CLR,,0.00,WeatherDisplay:10.37,2013-08-14 05:57:00,
2013-08-14 01:02:00,82.8,72.0,29.90,South,188,1.2,1.2,70,0.00,CLR,,0.00,WeatherDisplay:10.37,2013-08-14 06:02:00,
2013-08-14 01:07:00,82.7,71.9,29.90,SSW,192,3.5,3.5,70,0.00,CLR,,0.00,WeatherDisplay:10.37,2013-08-14 06:07:00,
2013-08-14 01:12:00,82.6,72.2,29.90,South,175,3.5,3.5,71,0.00,CLR,,0.00,WeatherDisplay:10.37,2013-08-14 06:12:00,
2013-08-14 01:17:00,82.4,72.0,29.89,SSW,194,3.5,3.5,71,0.00,CLR,,0.00,WeatherDisplay:10.37,2013-08-14 06:17:00,
2013-08-14 01:22:00,82.3,72.0,29.89,South,182,3.5,3.5,71,0.00,CLR,,0.00,WeatherDisplay:10.37,2013-08-14 06:22:00,
2013-08-14 01:27:00,82.1,71.8,29.89,SSW,194,5.0,5.0,71,0.00,CLR,,0.00,WeatherDisplay:10.37,2013-08-14 06:27:00,
2013-08-14 01:32:00,82.0,71.7,29.89,South,183,3.5,3.5,71,0.00,CLR,,0.00,WeatherDisplay:10.37,2013-08-14 06:32:00,
2013-08-14 01:37:00,81.8,71.5,29.89,South,184,4.6,4.6,71,0.00,CLR,,0.00,WeatherDisplay:10.37,2013-08-14 06:37:00,
2013-08-14 01:42:00,81.6,71.3,29.88,SSW,198,2.3,2.3,71,0.00,CLR,,0.00,WeatherDisplay:10.37,2013-08-14 06:42:00,
2013-08-14 01:47:00,81.6,71.3,29.88,South,182,3.5,3.5,71,0.00,CLR,,0.00,WeatherDisplay:10.37,2013-08-14 06:47:00,
2013-08-14 01:52:00,81.4,71.1,29.88,SSW,194,2.3,2.3,71,0.00,CLR,,0.00,WeatherDisplay:10.37,2013-08-14 06:52:00,
2013-08-14 01:57:00,81.4,71.1,29.88,SSW,199,1.2,1.2,71,0.00,CLR,,0.00,WeatherDisplay:10.37,2013-08-14 06:57:00,
2013-08-14 02:02:00,81.3,71.0,29.88,SSW,207,3.5,3.5,71,0.00,CLR,,0.00,WeatherDisplay:10.37,2013-08-14 07:02:00,
2013-08-14 02:07:00,81.1,70.8,29.88,South,173,3.5,3.5,71,0.00,CLR,,0.00,WeatherDisplay:10.37,2013-08-14 07:07:00,
2013-08-14 02:12:00,80.9,70.6,29.88,SSW,198,0.0,0.0,71,0.00,CLR,,0.00,WeatherDisplay:10.37,2013-08-14 07:12:00,
2013-08-14 02:17:00,80.8,70.5,29.88,SSW,198,0.0,0.0,71,0.00,CLR,,0.00,WeatherDisplay:10.37,2013-08-14 07:17:00,
2013-08-14 02:22:00,80.6,70.7,29.88,SSW,205,1.2,0.0,72,0.00,CLR,,0.00,WeatherDisplay:10.37,2013-08-14 07:22:00,
2013-08-14 02:27:00,80.5,70.6,29.88,SSW,205,1.2,1.2,72,0.00,CLR,,0.00,WeatherDisplay:10.37,2013-08-14 07:27:00,
2013-08-14 02:32:00,80.3,70.4,29.88,SSW,201,2.3,2.3,72,0.00,CLR,,0.00,WeatherDisplay:10.37,2013-08-14 07:32:00,
2013-08-14 02:37:00,80.1,70.7,29.88,SSW,201,2.3,2.3,73,0.00,CLR,,0.00,WeatherDisplay:10.37,2013-08-14 07:37:00,
2013-08-14 02:42:00,80.1,70.7,29.88,SW,215,3.5,3.5,73,0.00,CLR,,0.00,WeatherDisplay:10.37,2013-08-14 07:42:00,
2013-08-14 02:47:00,80.0,70.6,29.88,SW,236,1.2,0.0,73,0.00,CLR,,0.00,WeatherDisplay:10.37,2013-08-14 07:47:00,
2013-08-14 02:52:00,79.8,70.8,29.88,South,186,3.5,3.5,74,0.00,CLR,,0.00,WeatherDisplay:10.37,2013-08-14 07:52:00,
2013-08-14 02:57:00,79.6,70.6,29.88,South,182,3.5,3.5,74,0.00,CLR,,0.00,WeatherDisplay:10.37,2013-08-14 07:57:00,
2013-08-14 03:02:00,79.5,70.9,29.88,SSW,199,2.3,2.3,75,0.00,CLR,,0.00,WeatherDisplay:10.37,2013-08-14 08:02:00,
2013-08-14 03:07:00,79.4,70.8,29.88,South,188,0.0,0.0,75,0.00,CLR,,0.00,WeatherDisplay:10.37,2013-08-14 08:07:00,
2013-08-14 03:12:00,79.4,70.8,29.88,South,180,0.0,0.0,75,0.00,CLR,,0.00,WeatherDisplay:10.37,2013-08-14 08:12:00,
2013-08-14 03:17:00,79.4,70.8,29.89,SSW,194,0.0,0.0,75,0.00,CLR,,0.00,WeatherDisplay:10.37,2013-08-14 08:17:00,
2013-08-14 03:22:00,79.3,70.7,29.88,SSW,194,2.3,2.3,75,0.00,CLR,,0.00,WeatherDisplay:10.37,2013-08-14 08:22:00,
2013-08-14 03:27:00,79.2,70.6,29.88,SSW,194,2.3,2.3,75,0.00,CLR,,0.00,WeatherDisplay:10.37,2013-08-14 08:27:00,
2013-08-14 03:32:00,79.0,70.8,29.88,SSW,194,2.3,2.3,76,0.00,CLR,,0.00,WeatherDisplay:10.37,2013-08-14 08:32:00,
2013-08-14 03:37:00,78.9,70.7,29.88,SSW,193,2.3,2.3,76,0.00,CLR,,0.00,WeatherDisplay:10.37,2013-08-14 08:37:00,
2013-08-14 03:42:00,78.8,71.0,29.88,SE,138,3.5,3.5,77,0.00,CLR,,0.00,WeatherDisplay:10.37,2013-08-14 08:42:00,
2013-08-14 03:47:00,78.7,70.9,29.88,South,190,2.3,2.3,77,0.00,CLR,,0.00,WeatherDisplay:10.37,2013-08-14 08:47:00,
2013-08-14 03:52:00,78.6,71.2,29.88,SSW,192,3.5,3.5,78,0.00,CLR,,0.00,WeatherDisplay:10.37,2013-08-14 08:52:00,
2013-08-14 03:57:00,78.5,71.1,29.89,South,181,2.3,2.3,78,0.00,CLR,,0.00,WeatherDisplay:10.37,2013-08-14 08:57:00,
2013-08-14 04:02:00,78.5,71.1,29.89,SSW,198,1.2,1.2,78,0.00,CLR,,0.00,WeatherDisplay:10.37,2013-08-14 09:02:00,
2013-08-14 04:07:00,78.4,71.0,29.89,SSW,202,3.5,3.5,78,0.00,CLR,,0.00,WeatherDisplay:10.37,2013-08-14 09:07:00,
2013-08-14 04:12:00,78.4,71.3,29.89,SSW,203,3.5,3.5,79,0.00,CLR,,0.00,WeatherDisplay:10.37,2013-08-14 09:12:00,
2013-08-14 04:17:00,78.4,71.3,29.89,SW,214,3.5,3.5,79,0.00,CLR,,0.00,WeatherDisplay:10.37,2013-08-14 09:17:00,
2013-08-14 04:22:00,78.3,71.2,29.89,South,188,3.5,3.5,79,0.00,CLR,,0.00,WeatherDisplay:10.37,2013-08-14 09:22:00,
2013-08-14 04:27:00,78.2,71.2,29.88,SSW,211,3.5,3.5,79,0.00,CLR,,0.00,WeatherDisplay:10.37,2013-08-14 09:27:00,
2013-08-14 04:32:00,78.1,71.1,29.88,SSW,192,3.5,3.5,79,0.00,CLR,,0.00,WeatherDisplay:10.37,2013-08-14 09:32:00,
2013-08-14 04:37:00,78.1,71.1,29.88,South,187,3.5,3.5,79,0.00,CLR,,0.00,WeatherDisplay:10.37,2013-08-14 09:37:00,
2013-08-14 04:42:00,78.0,71.0,29.88,South,174,3.5,3.5,79,0.00,CLR,,0.00,WeatherDisplay:10.37,2013-08-14 09:42:00,
2013-08-14 04:47:00,78.0,71.3,29.88,SSW,207,2.3,2.3,80,0.00,CLR,,0.00,WeatherDisplay:10.37,2013-08-14 09:47:00,
2013-08-14 04:52:00,78.0,71.3,29.88,South,171,3.5,3.5,80,0.00,CLR,,0.00,WeatherDisplay:10.37,2013-08-14 09:52:00,
2013-08-14 04:57:00,78.0,71.3,29.88,SSE,167,3.5,3.5,80,0.00,CLR,,0.00,WeatherDisplay:10.37,2013-08-14 09:57:00,
2013-08-14 05:02:00,77.9,71.2,29.89,South,190,2.3,2.3,80,0.00,CLR,,0.00,WeatherDisplay:10.37,2013-08-14 10:02:00,
2013-08-14 05:07:00,77.9,71.2,29.89,SSE,165,2.3,2.3,80,0.00,CLR,,0.00,WeatherDisplay:10.37,2013-08-14 10:07:00,
2013-08-14 05:12:00,77.9,71.2,29.89,South,190,1.2,1.2,80,0.00,CLR,,0.00,WeatherDisplay:10.37,2013-08-14 10:12:00,
2013-08-14 05:17:00,77.7,71.0,29.89,SSW,196,1.2,1.2,80,0.00,CLR,,0.00,WeatherDisplay:10.37,2013-08-14 10:17:00,
2013-08-14 05:22:00,77.6,71.3,29.89,SSW,196,2.3,2.3,81,0.00,CLR,,0.00,WeatherDisplay:10.37,2013-08-14 10:22:00,
2013-08-14 05:27:00,77.6,71.3,29.89,SSW,202,0.0,0.0,81,0.00,CLR,,0.00,WeatherDisplay:10.37,2013-08-14 10:27:00,
2013-08-14 05:32:00,77.5,71.2,29.89,SSW,202,1.2,1.2,81,0.00,CLR,,0.00,WeatherDisplay:10.37,2013-08-14 10:32:00,
2013-08-14 05:37:00,77.3,71.0,29.89,SSW,200,1.2,0.0,81,0.00,CLR,,0.00,WeatherDisplay:10.37,2013-08-14 10:37:00,
2013-08-14 05:42:00,77.2,70.9,29.89,SW,216,2.3,2.3,81,0.00,CLR,,0.00,WeatherDisplay:10.37,2013-08-14 10:42:00,
2013-08-14 05:47:00,77.1,70.8,29.89,SW,216,1.2,1.2,81,0.00,CLR,,0.00,WeatherDisplay:10.37,2013-08-14 10:47:00,
2013-08-14 05:52:00,76.9,71.0,29.89,SW,215,2.3,2.3,82,0.00,CLR,,0.00,WeatherDisplay:10.37,2013-08-14 10:52:00,
2013-08-14 05:57:00,76.8,70.9,29.90,SSW,213,1.2,1.2,82,0.00,CLR,,0.00,WeatherDisplay:10.37,2013-08-14 10:57:00,
2013-08-14 06:02:00,76.7,70.8,29.90,SSW,213,2.3,2.3,82,0.00,CLR,,0.00,WeatherDisplay:10.37,2013-08-14 11:02:00,
2013-08-14 06:07:00,76.6,70.7,29.90,SSW,213,0.0,0.0,82,0.00,CLR,,0.00,WeatherDisplay:10.37,2013-08-14 11:07:00,
2013-08-14 06:12:00,76.4,70.5,29.90,SSW,213,0.0,0.0,82,0.00,CLR,,0.00,WeatherDisplay:10.37,2013-08-14 11:12:00,
2013-08-14 06:17:00,76.2,70.7,29.90,SSW,213,0.0,0.0,83,0.00,CLR,,0.00,WeatherDisplay:10.37,2013-08-14 11:17:00,
2013-08-14 06:22:00,76.1,70.2,29.90,SSW,213,0.0,0.0,82,0.00,CLR,,0.00,WeatherDisplay:10.37,2013-08-14 11:22:00,
2013-08-14 06:27:00,75.9,70.4,29.90,SSW,213,0.0,0.0,83,0.00,CLR,,0.00,WeatherDisplay:10.37,2013-08-14 11:27:00,
2013-08-14 06:32:00,75.8,70.3,29.90,SSW,213,0.0,0.0,83,0.00,CLR,,0.00,WeatherDisplay:10.37,2013-08-14 11:32:00,
2013-08-14 06:37:00,75.7,70.5,29.91,SSW,213,1.2,1.2,84,0.00,CLR,,0.00,WeatherDisplay:10.37,2013-08-14 11:37:00,
2013-08-14 06:42:00,75.7,70.5,29.91,SSW,213,0.0,0.0,84,0.00,CLR,,0.00,WeatherDisplay:10.37,2013-08-14 11:42:00,
2013-08-14 06:47:00,75.7,70.9,29.91,SSW,213,1.2,1.2,85,0.00,CLR,,0.00,WeatherDisplay:10.37,2013-08-14 11:47:00,
2013-08-14 06:52:00,75.7,70.9,29.91,SSW,213,2.3,2.3,85,0.00,CLR,,0.00,WeatherDisplay:10.37,2013-08-14 11:52:00,
2013-08-14 06:57:00,75.7,70.9,29.91,SSW,213,0.0,0.0,85,0.00,CLR,,0.00,WeatherDisplay:10.37,2013-08-14 11:57:00,
2013-08-14 07:02:00,75.7,70.9,29.91,SSW,211,2.3,2.3,85,0.00,CLR,,0.00,WeatherDisplay:10.37,2013-08-14 12:02:00,
2013-08-14 07:07:00,75.7,71.2,29.91,SSW,207,1.2,0.0,86,0.00,CLR,,0.00,WeatherDisplay:10.37,2013-08-14 12:07:00,
2013-08-14 07:12:00,75.6,71.1,29.91,South,173,2.0,2.0,86,0.00,CLR,,0.00,WeatherDisplay:10.37,2013-08-14 12:12:00,
2013-08-14 07:17:00,75.7,71.2,29.91,SW,221,2.3,2.3,86,0.00,CLR,,0.00,WeatherDisplay:10.37,2013-08-14 12:17:00,
2013-08-14 07:22:00,75.8,71.7,29.91,South,180,1.2,1.2,87,0.00,CLR,,0.00,WeatherDisplay:10.37,2013-08-14 12:22:00,
2013-08-14 07:27:00,75.8,71.7,29.91,SSW,193,1.2,1.2,87,0.00,CLR,,0.00,WeatherDisplay:10.37,2013-08-14 12:27:00,
2013-08-14 07:32:00,75.9,71.8,29.91,SSW,203,3.5,3.5,87,0.00,CLR,,0.00,WeatherDisplay:10.37,2013-08-14 12:32:00,
2013-08-14 07:37:00,76.1,71.6,29.91,SW,216,2.3,2.3,86,0.00,CLR,,0.00,WeatherDisplay:10.37,2013-08-14 12:37:00,
2013-08-14 07:42:00,76.2,71.7,29.91,SW,216,2.3,2.3,86,0.00,CLR,,0.00,WeatherDisplay:10.37,2013-08-14 12:42:00,
2013-08-14 07:47:00,76.2,71.7,29.91,WSW,247,3.5,3.5,86,0.00,CLR,,0.00,WeatherDisplay:10.37,2013-08-14 12:47:00,
2013-08-14 07:52:00,76.4,71.9,29.92,SSW,209,2.3,2.3,86,0.00,CLR,,0.00,WeatherDisplay:10.37,2013-08-14 12:52:00,
2013-08-14 07:57:00,76.5,72.0,29.92,SW,221,2.3,2.3,86,0.00,CLR,,0.00,WeatherDisplay:10.37,2013-08-14 12:57:00,
2013-08-14 08:02:00,76.6,72.1,29.92,SW,221,0.0,0.0,86,0.00,CLR,,0.00,WeatherDisplay:10.37,2013-08-14 13:02:00,
2013-08-14 08:07:00,76.7,72.2,29.93,SW,215,1.2,0.0,86,0.00,CLR,,0.00,WeatherDisplay:10.37,2013-08-14 13:07:00,
2013-08-14 08:12:00,76.9,72.4,29.93,SW,230,1.2,1.2,86,0.00,CLR,,0.00,WeatherDisplay:10.37,2013-08-14 13:12:00,
2013-08-14 08:17:00,77.1,72.6,29.93,SW,217,3.5,3.5,86,0.00,CLR,,0.00,WeatherDisplay:10.37,2013-08-14 13:17:00,
2013-08-14 08:22:00,77.3,72.4,29.93,WSW,249,1.2,0.0,85,0.00,CLR,,0.00,WeatherDisplay:10.37,2013-08-14 13:22:00,
2013-08-14 08:27:00,77.6,72.7,29.93,SSW,205,2.3,2.3,85,0.00,CLR,,0.00,WeatherDisplay:10.37,2013-08-14 13:27:00,
2013-08-14 08:32:00,77.8,72.6,29.93,WSW,251,3.5,3.5,84,0.00,CLR,,0.00,WeatherDisplay:10.37,2013-08-14 13:32:00,
2013-08-14 08:37:00,78.2,72.6,29.94,WSW,249,3.5,3.5,83,0.00,CLR,,0.00,WeatherDisplay:10.37,2013-08-14 13:37:00,
2013-08-14 08:42:00,78.5,72.5,29.94,South,180,5.0,5.0,82,0.00,CLR,,0.00,WeatherDisplay:10.37,2013-08-14 13:42:00,
2013-08-14 08:47:00,78.9,72.6,29.94,South,169,1.2,1.2,81,0.00,CLR,,0.00,WeatherDisplay:10.37,2013-08-14 13:47:00,
2013-08-14 08:52:00,79.2,72.5,29.94,SSW,194,5.0,5.0,80,0.00,CLR,,0.00,WeatherDisplay:10.37,2013-08-14 13:52:00,
2013-08-14 08:57:00,79.6,72.1,29.94,SSW,199,4.6,4.6,78,0.00,CLR,,0.00,WeatherDisplay:10.37,2013-08-14 13:57:00,
2013-08-14 09:02:00,79.9,72.0,29.94,WSW,242,3.5,3.5,77,0.00,CLR,,0.00,WeatherDisplay:10.37,2013-08-14 14:02:00,
2013-08-14 09:07:00,80.2,71.9,29.94,SW,220,4.6,4.6,76,0.00,CLR,,0.00,WeatherDisplay:10.37,2013-08-14 14:07:00,
2013-08-14 09:12:00,80.6,71.9,29.94,SSW,199,4.6,4.6,75,0.00,CLR,,0.00,WeatherDisplay:10.37,2013-08-14 14:12:00,
2013-08-14 09:17:00,81.1,71.6,29.94,SSW,198,8.1,8.1,73,0.00,CLR,,0.00,WeatherDisplay:10.37,2013-08-14 14:17:00,
2013-08-14 09:22:00,81.5,71.2,29.94,SW,234,3.5,3.5,71,0.00,CLR,,0.00,WeatherDisplay:10.37,2013-08-14 14:22:00,
2013-08-14 09:27:00,82.0,71.7,29.94,SSW,205,6.9,6.9,71,0.00,CLR,,0.00,WeatherDisplay:10.37,2013-08-14 14:27:00,
2013-08-14 09:32:00,82.4,71.6,29.94,SSE,148,5.8,5.8,70,0.00,CLR,,0.00,WeatherDisplay:10.37,2013-08-14 14:32:00,
2013-08-14 09:37:00,82.7,71.1,29.94,West,281,6.9,6.9,68,0.00,CLR,,0.00,WeatherDisplay:10.37,2013-08-14 14:37:00,
2013-08-14 09:42:00,83.2,71.1,29.94,SW,216,6.9,6.9,67,0.00,CLR,,0.00,WeatherDisplay:10.37,2013-08-14 14:42:00,
2013-08-14 09:47:00,83.4,70.8,29.94,ESE,117,4.6,4.6,66,0.00,CLR,,0.00,WeatherDisplay:10.37,2013-08-14 14:47:00,
2013-08-14 09:52:00,83.7,71.1,29.94,WSW,248,7.0,7.0,66,0.00,CLR,,0.00,WeatherDisplay:10.37,2013-08-14 14:52:00,
2013-08-14 09:57:00,84.1,71.1,29.94,West,278,3.5,3.5,65,0.00,CLR,,0.00,WeatherDisplay:10.37,2013-08-14 14:57:00,
2013-08-14 10:02:00,84.4,70.4,29.94,SSW,201,8.1,8.1,63,0.00,CLR,,0.00,WeatherDisplay:10.37,2013-08-14 15:02:00,
2013-08-14 10:07:00,84.8,70.3,29.94,West,275,5.8,5.8,62,0.00,CLR,,0.00,WeatherDisplay:10.37,2013-08-14 15:07:00,
2013-08-14 10:12:00,85.2,70.2,29.94,WNW,296,9.2,9.2,61,0.00,CLR,,0.00,WeatherDisplay:10.37,2013-08-14 15:12:00,
2013-08-14 10:17:00,85.6,70.1,29.94,West,261,3.5,3.5,60,0.00,CLR,,0.00,WeatherDisplay:10.37,2013-08-14 15:17:00,
2013-08-14 10:22:00,86.0,70.5,29.94,SW,223,3.5,3.5,60,0.00,CLR,,0.00,WeatherDisplay:10.37,2013-08-14 15:22:00,
2013-08-14 10:40:00,87.5,70.4,29.94,SSW,201,9.2,9.2,57,0.00,CLR,,0.00,WeatherDisplay:10.37,2013-08-14 15:40:00,
2013-08-14 10:45:00,87.8,69.6,29.94,WSW,257,4.6,4.6,55,0.00,CLR,,0.00,WeatherDisplay:10.37,2013-08-14 15:45:00,
2013-08-14 10:50:00,88.0,69.3,29.94,South,172,5.8,5.8,54,0.00,CLR,,0.00,WeatherDisplay:10.37,2013-08-14 15:50:00,
2013-08-14 10:55:00,88.4,70.2,29.94,South,177,4.0,4.0,55,0.00,CLR,,0.00,WeatherDisplay:10.37,2013-08-14 15:55:00,
2013-08-14 11:00:00,89.0,69.6,29.94,SSW,206,3.5,3.5,53,0.00,CLR,,0.00,WeatherDisplay:10.37,2013-08-14 16:00:00,
2013-08-14 11:05:00,89.7,69.7,29.93,SSW,198,3.5,3.5,52,0.00,CLR,,0.00,WeatherDisplay:10.37,2013-08-14 16:05:00,
2013-08-14 11:10:00,90.3,69.7,29.93,SSW,195,3.5,3.5,51,0.00,CLR,,0.00,WeatherDisplay:10.37,2013-08-14 16:10:00,
2013-08-14 11:15:00,90.8,70.2,29.93,WSW,252,6.9,6.9,51,0.00,CLR,,0.00,WeatherDisplay:10.37,2013-08-14 16:15:00,
2013-08-14 11:20:00,91.0,69.8,29.93,SSW,200,3.5,3.5,50,0.00,CLR,,0.00,WeatherDisplay:10.37,2013-08-14 16:20:00,
2013-08-14 11:26:00,91.1,69.9,29.93,WSW,242,5.8,5.8,50,0.00,CLR,,0.00,WeatherDisplay:10.37,2013-08-14 16:26:00,
2013-08-14 11:31:00,91.4,70.1,29.93,SW,231,6.9,6.9,50,0.00,CLR,,0.00,WeatherDisplay:10.37,2013-08-14 16:31:00,
2013-08-14 11:36:00,91.8,69.9,29.93,SSW,201,3.5,3.5,49,0.00,CLR,,0.00,WeatherDisplay:10.37,2013-08-14 16:36:00,
2013-08-14 11:41:00,92.6,70.6,29.93,NNE,18,4.6,4.6,49,0.00,CLR,,0.00,WeatherDisplay:10.37,2013-08-14 16:41:00,
2013-08-14 11:46:00,93.3,70.1,29.92,South,175,5.8,5.8,47,0.00,CLR,,0.00,WeatherDisplay:10.37,2013-08-14 16:46:00,
2013-08-14 11:51:00,93.7,70.4,29.92,SW,222,3.5,3.5,47,0.00,CLR,,0.00,WeatherDisplay:10.37,2013-08-14 16:51:00,
2013-08-14 11:56:00,94.0,69.4,29.92,South,185,3.5,3.5,45,0.00,CLR,,0.00,WeatherDisplay:10.37,2013-08-14 16:56:00,
2013-08-14 12:02:00,94.1,67.5,29.92,SW,234,8.1,8.1,42,0.00,CLR,,0.00,WeatherDisplay:10.37,2013-08-14 17:02:00,
2013-08-14 12:07:00,94.4,67.8,29.92,WNW,294,7.0,7.0,42,0.00,CLR,,0.00,WeatherDisplay:10.37,2013-08-14 17:07:00,
2013-08-14 12:12:00,94.8,68.1,29.92,SSW,205,3.5,3.5,42,0.00,CLR,,0.00,WeatherDisplay:10.37,2013-08-14 17:12:00,
2013-08-14 12:17:00,95.4,68.7,29.92,NNW,332,3.5,3.5,42,0.00,CLR,,0.00,WeatherDisplay:10.37,2013-08-14 17:17:00,
2013-08-14 12:22:00,96.0,68.5,29.91,SW,218,2.0,2.0,41,0.00,CLR,,0.00,WeatherDisplay:10.37,2013-08-14 17:22:00,
2013-08-14 12:27:00,96.7,68.4,29.91,West,261,4.6,4.6,40,0.00,CLR,,0.00,WeatherDisplay:10.37,2013-08-14 17:27:00,
2013-08-14 12:32:00,97.0,68.7,29.91,ESE,102,4.0,4.0,40,0.00,CLR,,0.00,WeatherDisplay:10.37,2013-08-14 17:32:00,
2013-08-14 12:37:00,97.3,68.9,29.91,WSW,257,2.0,2.0,40,0.00,CLR,,0.00,WeatherDisplay:10.37,2013-08-14 17:37:00,
2013-08-14 12:42:00,97.5,69.1,29.91,SW,220,3.5,3.5,40,0.00,CLR,,0.00,WeatherDisplay:10.37,2013-08-14 17:42:00,
2013-08-14 12:48:00,98.0,68.8,29.90,SW,236,3.5,3.5,39,0.00,CLR,,0.00,WeatherDisplay:10.37,2013-08-14 17:48:00,
2013-08-14 12:53:00,98.3,69.1,29.90,West,276,3.5,3.5,39,0.00,CLR,,0.00,WeatherDisplay:10.37,2013-08-14 17:53:00,
2013-08-14 12:58:00,98.4,69.2,29.91,SSW,205,5.8,5.8,39,0.00,CLR,,0.00,WeatherDisplay:10.37,2013-08-14 17:58:00,
2013-08-14 13:03:00,98.8,68.8,29.90,South,189,6.9,6.9,38,0.00,CLR,,0.00,WeatherDisplay:10.37,2013-08-14 18:03:00,
2013-08-14 13:08:00,99.1,68.3,29.90,SSW,205,5.8,5.8,37,0.00,CLR,,0.00,WeatherDisplay:10.37,2013-08-14 18:08:00,
2013-08-14 13:13:00,99.1,67.5,29.90,SE,127,6.9,6.9,36,0.00,CLR,,0.00,WeatherDisplay:10.37,2013-08-14 18:13:00,
2013-08-14 13:20:00,99.2,67.6,29.90,NNE,32,0.0,0.3,36,0.00,CLR,,0.00,WeatherDisplay:10.37,2013-08-14 18:20:00,
2013-08-14 13:25:00,99.7,68.0,29.90,SSE,153,2.3,2.3,36,0.00,CLR,,0.00,WeatherDisplay:10.37,2013-08-14 18:25:00,
2013-08-14 13:32:00,99.3,67.6,29.89,SW,233,1.0,1.0,36,0.00,CLR,,0.00,WeatherDisplay:10.37,2013-08-14 18:32:00,
2013-08-14 13:37:00,98.9,68.1,29.89,South,189,2.3,2.3,37,0.00,CLR,,0.00,WeatherDisplay:10.37,2013-08-14 18:37:00,
2013-08-14 13:47:00,99.4,67.7,29.89,South,171,0.0,0.1,36,0.00,CLR,,0.00,WeatherDisplay:10.37,2013-08-14 18:47:00,
2013-08-14 13:53:00,100.1,69.1,29.88,South,186,2.3,2.3,37,0.00,CLR,,0.00,WeatherDisplay:10.37,2013-08-14 18:53:00,
2013-08-14 13:58:00,100.8,68.1,29.88,ESE,111,3.5,3.5,35,0.00,CLR,,0.00,WeatherDisplay:10.37,2013-08-14 18:58:00,
2013-08-14 14:03:00,101.1,68.4,29.88,ESE,112,2.3,2.3,35,0.00,CLR,,0.00,WeatherDisplay:10.37,2013-08-14 19:03:00,
2013-08-14 14:08:00,101.4,68.7,29.87,SE,145,3.5,3.5,35,0.00,CLR,,0.00,WeatherDisplay:10.37,2013-08-14 19:08:00,
2013-08-14 14:13:00,101.7,67.2,29.87,SSE,158,5.8,5.8,33,0.00,CLR,,0.00,WeatherDisplay:10.37,2013-08-14 19:13:00,
2013-08-14 14:18:00,101.7,68.1,29.87,ESE,120,1.2,1.2,34,0.00,CLR,,0.00,WeatherDisplay:10.37,2013-08-14 19:18:00,
2013-08-14 14:24:00,101.8,67.3,29.86,South,184,2.3,2.3,33,0.00,CLR,,0.00,WeatherDisplay:10.37,2013-08-14 19:24:00,
2013-08-14 14:29:00,102.1,66.7,29.86,SE,138,3.5,3.5,32,0.00,CLR,,0.00,WeatherDisplay:10.37,2013-08-14 19:29:00,
2013-08-14 14:35:00,102.5,67.0,29.86,West,266,8.1,8.1,32,0.00,CLR,,0.00,WeatherDisplay:10.37,2013-08-14 19:35:00,
2013-08-14 14:40:00,102.1,66.7,29.85,South,189,3.5,3.5,32,0.00,CLR,,0.00,WeatherDisplay:10.37,2013-08-14 19:40:00,
2013-08-14 14:45:00,102.0,67.5,29.85,SSE,149,3.5,3.5,33,0.00,CLR,,0.00,WeatherDisplay:10.37,2013-08-14 19:45:00,
2013-08-14 14:50:00,102.1,67.6,29.85,ESE,113,3.5,3.5,33,0.00,CLR,,0.00,WeatherDisplay:10.37,2013-08-14 19:50:00,
2013-08-14 14:55:00,102.3,66.8,29.85,SE,146,4.6,4.6,32,0.00,CLR,,0.00,WeatherDisplay:10.37,2013-08-14 19:55:00,
2013-08-14 15:00:00,102.1,66.7,29.85,SE,130,3.5,3.5,32,0.00,CLR,,0.00,WeatherDisplay:10.37,2013-08-14 20:00:00,
2013-08-14 15:05:00,101.9,66.5,29.84,South,180,0.0,0.1,32,0.00,CLR,,0.00,WeatherDisplay:10.37,2013-08-14 20:05:00,
2013-08-14 15:10:00,102.0,66.6,29.84,SSW,198,5.8,5.8,32,0.00,CLR,,0.00,WeatherDisplay:10.37,2013-08-14 20:10:00,
2013-08-14 15:16:00,102.1,66.7,29.84,SW,236,4.6,4.6,32,0.00,CLR,,0.00,WeatherDisplay:10.37,2013-08-14 20:16:00,
2013-08-14 15:21:00,102.4,66.0,29.84,SSW,199,3.5,3.5,31,0.00,CLR,,0.00,WeatherDisplay:10.37,2013-08-14 20:21:00,
2013-08-14 15:27:00,102.5,66.1,29.84,ESE,103,3.5,3.5,31,0.00,CLR,,0.00,WeatherDisplay:10.37,2013-08-14 20:27:00,
2013-08-14 15:33:00,102.6,65.2,29.84,South,171,10.4,10.4,30,0.00,CLR,,0.00,WeatherDisplay:10.37,2013-08-14 20:33:00,
2013-08-14 15:38:00,102.5,65.2,29.83,SE,125,3.5,3.5,30,0.00,CLR,,0.00,WeatherDisplay:10.37,2013-08-14 20:38:00,
2013-08-14 15:43:00,102.3,65.0,29.83,SSE,162,2.3,2.3,30,0.00,CLR,,0.00,WeatherDisplay:10.37,2013-08-14 20:43:00,
2013-08-14 15:49:00,102.2,64.9,29.83,NNE,13,2.3,2.3,30,0.00,CLR,,0.00,WeatherDisplay:10.37,2013-08-14 20:49:00,
2013-08-14 15:54:00,102.3,65.0,29.83,SE,136,5.0,5.0,30,0.00,CLR,,0.00,WeatherDisplay:10.37,2013-08-14 20:54:00,
2013-08-14 15:59:00,102.1,63.8,29.82,ESE,109,3.5,3.5,29,0.00,CLR,,0.00,WeatherDisplay:10.37,2013-08-14 20:59:00,
2013-08-14 16:04:00,102.0,64.7,29.82,ESE,116,2.3,2.3,30,0.00,CLR,,0.00,WeatherDisplay:10.37,2013-08-14 21:04:00,
2013-08-14 16:09:00,102.0,63.8,29.82,SE,143,3.5,3.5,29,0.00,CLR,,0.00,WeatherDisplay:10.37,2013-08-14 21:09:00,
2013-08-14 16:14:00,101.9,63.7,29.82,South,169,2.3,2.3,29,0.00,CLR,,0.00,WeatherDisplay:10.37,2013-08-14 21:14:00,
2013-08-14 16:19:00,102.0,62.8,29.82,ESE,116,4.6,4.6,28,0.00,CLR,,0.00,WeatherDisplay:10.37,2013-08-14 21:19:00,
2013-08-14 16:24:00,102.1,61.8,29.82,South,178,6.9,6.9,27,0.00,CLR,,0.00,WeatherDisplay:10.37,2013-08-14 21:24:00,
2013-08-14 16:29:00,101.9,62.7,29.81,ESE,119,3.5,3.5,28,0.00,CLR,,0.00,WeatherDisplay:10.37,2013-08-14 21:29:00,
2013-08-14 16:34:00,101.8,62.6,29.81,East,93,3.5,3.5,28,0.00,CLR,,0.00,WeatherDisplay:10.37,2013-08-14 21:34:00,
2013-08-14 16:39:00,101.7,61.5,29.81,NNE,21,3.5,3.5,27,0.00,CLR,,0.00,WeatherDisplay:10.37,2013-08-14 21:39:00,
2013-08-14 16:44:00,101.6,61.4,29.81,SE,138,4.6,4.6,27,0.00,CLR,,0.00,WeatherDisplay:10.37,2013-08-14 21:44:00,
2013-08-14 16:49:00,101.8,62.6,29.81,SSE,149,3.5,3.5,28,0.00,CLR,,0.00,WeatherDisplay:10.37,2013-08-14 21:49:00,
2013-08-14 16:54:00,101.8,62.6,29.81,ESE,118,4.6,4.6,28,0.00,CLR,,0.00,WeatherDisplay:10.37,2013-08-14 21:54:00,
2013-08-14 16:59:00,101.8,62.6,29.81,SSE,168,4.0,4.0,28,0.00,CLR,,0.00,WeatherDisplay:10.37,2013-08-14 21:59:00,
2013-08-14 17:04:00,101.6,62.4,29.81,SE,132,3.5,3.5,28,0.00,CLR,,0.00,WeatherDisplay:10.37,2013-08-14 22:04:00,
2013-08-14 17:09:00,101.4,62.2,29.81,South,178,3.0,3.0,28,0.00,CLR,,0.00,WeatherDisplay:10.37,2013-08-14 22:09:00,
2013-08-14 17:14:00,101.4,63.2,29.81,SE,126,3.5,3.5,29,0.00,CLR,,0.00,WeatherDisplay:10.37,2013-08-14 22:14:00,
2013-08-14 17:19:00,101.4,62.2,29.80,ESE,120,2.3,2.3,28,0.00,CLR,,0.00,WeatherDisplay:10.37,2013-08-14 22:19:00,
2013-08-14 17:24:00,101.3,62.2,29.81,SE,144,3.5,3.5,28,0.00,CLR,,0.00,WeatherDisplay:10.37,2013-08-14 22:24:00,
2013-08-14 17:30:00,101.4,62.2,29.81,East,81,5.8,5.8,28,0.00,CLR,,0.00,WeatherDisplay:10.37,2013-08-14 22:30:00,
2013-08-14 17:35:00,101.2,62.1,29.81,SE,144,5.8,5.8,28,0.00,CLR,,0.00,WeatherDisplay:10.37,2013-08-14 22:35:00,
2013-08-14 17:40:00,101.2,62.1,29.81,WSW,246,1.2,1.2,28,0.00,CLR,,0.00,WeatherDisplay:10.37,2013-08-14 22:40:00,
2013-08-14 17:45:00,101.2,62.1,29.81,SE,138,3.5,3.5,28,0.00,CLR,,0.00,WeatherDisplay:10.37,2013-08-14 22:45:00,
2013-08-14 17:50:00,101.0,61.9,29.81,WSW,240,3.0,3.0,28,0.00,CLR,,0.00,WeatherDisplay:10.37,2013-08-14 22:50:00,
2013-08-14 17:55:00,100.9,61.8,29.80,SW,216,2.3,2.3,28,0.00,CLR,,0.00,WeatherDisplay:10.37,2013-08-14 22:55:00,
2013-08-14 18:00:00,100.8,61.7,29.80,SW,221,0.0,0.0,28,0.00,CLR,,0.00,WeatherDisplay:10.37,2013-08-14 23:00:00,
2013-08-14 18:05:00,100.7,61.6,29.80,SSE,157,1.0,1.0,28,0.00,CLR,,0.00,WeatherDisplay:10.37,2013-08-14 23:05:00,
2013-08-14 18:10:00,100.6,60.5,29.80,SSE,162,5.0,5.0,27,0.00,CLR,,0.00,WeatherDisplay:10.37,2013-08-14 23:10:00,
2013-08-14 18:16:00,100.4,61.4,29.80,South,180,2.3,2.3,28,0.00,CLR,,0.00,WeatherDisplay:10.37,2013-08-14 23:16:00,
2013-08-14 18:21:00,100.1,61.1,29.80,SSE,166,2.3,2.3,28,0.00,CLR,,0.00,WeatherDisplay:10.37,2013-08-14 23:21:00,
2013-08-14 18:26:00,99.9,61.0,29.80,SE,134,2.0,2.0,28,0.00,CLR,,0.00,WeatherDisplay:10.37,2013-08-14 23:26:00,
2013-08-14 18:31:00,99.7,60.8,29.80,SE,129,1.2,1.2,28,0.00,CLR,,0.00,WeatherDisplay:10.37,2013-08-14 23:31:00,
2013-08-14 18:36:00,99.6,61.7,29.79,SE,129,0.0,0.0,29,0.00,CLR,,0.00,WeatherDisplay:10.37,2013-08-14 23:36:00,
2013-08-14 18:41:00,99.2,65.9,29.80,NE,47,9.2,9.2,34,0.00,CLR,,0.00,WeatherDisplay:10.37,2013-08-14 23:41:00,
2013-08-14 18:46:00,98.1,68.9,29.81,NNE,31,9.2,9.2,39,0.00,CLR,,0.00,WeatherDisplay:10.37,2013-08-14 23:46:00,
2013-08-14 18:51:00,97.0,68.7,29.80,NE,46,9.2,9.2,40,0.00,CLR,,0.00,WeatherDisplay:10.37,2013-08-14 23:51:00,
2013-08-14 18:56:00,95.5,68.8,29.81,ENE,65,5.8,5.8,42,0.00,CLR,,0.00,WeatherDisplay:10.37,2013-08-14 23:56:00,
2013-08-14 19:01:00,94.5,68.5,29.81,ENE,68,10.4,10.4,43,0.00,CLR,,0.00,WeatherDisplay:10.37,2013-08-15 00:01:00,
2013-08-14 19:06:00,93.9,68.7,29.81,NNE,32,11.5,11.5,44,0.00,CLR,,0.00,WeatherDisplay:10.37,2013-08-15 00:06:00,
2013-08-14 19:11:00,93.3,68.8,29.81,ENE,63,4.6,4.6,45,0.00,CLR,,0.00,WeatherDisplay:10.37,2013-08-15 00:11:00,
2013-08-14 19:16:00,93.0,68.5,29.81,ENE,57,5.8,5.8,45,0.00,CLR,,0.00,WeatherDisplay:10.37,2013-08-15 00:16:00,
2013-08-14 19:21:00,92.7,68.9,29.81,NE,48,4.6,4.6,46,0.00,CLR,,0.00,WeatherDisplay:10.37,2013-08-15 00:21:00,
2013-08-14 19:26:00,92.5,68.7,29.81,ENE,60,6.9,6.9,46,0.00,CLR,,0.00,WeatherDisplay:10.37,2013-08-15 00:26:00,
2013-08-14 19:31:00,92.0,68.3,29.81,NNE,13,6.9,6.9,46,0.00,CLR,,0.00,WeatherDisplay:10.37,2013-08-15 00:31:00,
2013-08-14 19:36:00,91.5,68.4,29.81,NW,311,9.2,9.2,47,0.00,CLR,,0.00,WeatherDisplay:10.37,2013-08-15 00:36:00,
2013-08-14 19:41:00,90.8,68.4,29.81,NE,39,6.9,6.9,48,0.00,CLR,,0.00,WeatherDisplay:10.37,2013-08-15 00:41:00,
2013-08-14 19:46:00,90.4,68.6,29.81,ENE,59,6.9,6.9,49,0.00,CLR,,0.00,WeatherDisplay:10.37,2013-08-15 00:46:00,
2013-08-14 19:51:00,90.2,68.5,29.81,East,86,4.6,4.6,49,0.00,CLR,,0.00,WeatherDisplay:10.37,2013-08-15 00:51:00,
2013-08-14 19:56:00,89.9,68.8,29.81,ENE,58,4.6,4.6,50,0.00,CLR,,0.00,WeatherDisplay:10.37,2013-08-15 00:56:00,
2013-08-14 20:01:00,89.5,68.4,29.82,NE,41,5.8,5.8,50,0.00,CLR,,0.00,WeatherDisplay:10.37,2013-08-15 01:01:00,
2013-08-14 20:06:00,89.0,68.5,29.82,NE,50,6.9,6.9,51,0.00,CLR,,0.00,WeatherDisplay:10.37,2013-08-15 01:06:00,
2013-08-14 20:11:00,88.6,68.2,29.82,North,5,7.0,7.0,51,0.00,CLR,,0.00,WeatherDisplay:10.37,2013-08-15 01:11:00,
2013-08-14 20:16:00,88.3,68.4,29.83,North,360,3.5,3.5,52,0.00,CLR,,0.00,WeatherDisplay:10.37,2013-08-15 01:16:00,
2013-08-14 20:21:00,87.9,68.1,29.83,NNE,33,3.5,3.5,52,0.00,CLR,,0.00,WeatherDisplay:10.37,2013-08-15 01:21:00,
2013-08-14 20:26:00,87.7,68.4,29.83,NNE,33,5.8,5.8,53,0.00,CLR,,0.00,WeatherDisplay:10.37,2013-08-15 01:26:00,
2013-08-14 20:31:00,87.5,68.3,29.83,ENE,61,3.5,3.5,53,0.00,CLR,,0.00,WeatherDisplay:10.37,2013-08-15 01:31:00,
2013-08-14 20:36:00,87.3,68.6,29.84,NE,34,8.1,8.1,54,0.00,CLR,,0.00,WeatherDisplay:10.37,2013-08-15 01:36:00,
2013-08-14 20:41:00,87.1,68.4,29.84,NNE,32,6.0,6.0,54,0.00,CLR,,0.00,WeatherDisplay:10.37,2013-08-15 01:41:00,
2013-08-14 20:46:00,86.8,68.7,29.84,ESE,108,4.6,4.6,55,0.00,CLR,,0.00,WeatherDisplay:10.37,2013-08-15 01:46:00,
2013-08-14 20:51:00,86.6,68.5,29.84,North,11,4.6,4.6,55,0.00,CLR,,0.00,WeatherDisplay:10.37,2013-08-15 01:51:00,
2013-08-14 20:56:00,86.5,68.9,29.85,NE,54,3.5,3.5,56,0.00,CLR,,0.00,WeatherDisplay:10.37,2013-08-15 01:56:00,
2013-08-14 21:01:00,86.3,68.8,29.85,NNE,15,3.5,3.5,56,0.00,CLR,,0.00,WeatherDisplay:10.37,2013-08-15 02:01:00,
2013-08-14 21:06:00,86.0,68.5,29.85,ENE,58,10.4,10.4,56,0.00,CLR,,0.00,WeatherDisplay:10.37,2013-08-15 02:06:00,
2013-08-14 21:11:00,85.7,68.7,29.86,NNE,28,8.1,8.1,57,0.00,CLR,,0.00,WeatherDisplay:10.37,2013-08-15 02:11:00,
2013-08-14 21:16:00,85.5,68.5,29.86,NNE,15,4.6,4.6,57,0.00,CLR,,0.00,WeatherDisplay:10.37,2013-08-15 02:16:00,
2013-08-14 21:21:00,85.2,68.8,29.86,NE,41,9.2,9.2,58,0.00,CLR,,0.00,WeatherDisplay:10.37,2013-08-15 02:21:00,
2013-08-14 21:26:00,85.1,68.7,29.86,ENE,63,9.2,9.2,58,0.00,CLR,,0.00,WeatherDisplay:10.37,2013-08-15 02:26:00,
2013-08-14 21:31:00,85.0,69.1,29.86,NE,56,4.0,4.0,59,0.00,CLR,,0.00,WeatherDisplay:10.37,2013-08-15 02:31:00,
2013-08-14 21:36:00,84.9,69.0,29.87,ENE,57,5.0,5.0,59,0.00,CLR,,0.00,WeatherDisplay:10.37,2013-08-15 02:36:00,
2013-08-14 21:41:00,84.7,68.8,29.87,NNW,347,7.0,7.0,59,0.00,CLR,,0.00,WeatherDisplay:10.37,2013-08-15 02:41:00,
2013-08-14 21:46:00,84.5,69.1,29.87,NNE,23,8.1,8.1,60,0.00,CLR,,0.00,WeatherDisplay:10.37,2013-08-15 02:46:00,
2013-08-14 21:51:00,84.4,69.0,29.88,East,84,2.3,2.3,60,0.00,CLR,,0.00,WeatherDisplay:10.37,2013-08-15 02:51:00,
2013-08-14 21:56:00,84.3,68.9,29.88,NNE,32,3.5,3.5,60,0.00,CLR,,0.00,WeatherDisplay:10.37,2013-08-15 02:56:00,
2013-08-14 22:01:00,84.2,68.8,29.88,NE,44,3.5,3.5,60,0.00,CLR,,0.00,WeatherDisplay:10.37,2013-08-15 03:01:00,
2013-08-14 22:06:00,84.1,68.7,29.88,ENE,73,3.5,3.5,60,0.00,CLR,,0.00,WeatherDisplay:10.37,2013-08-15 03:06:00,
2013-08-14 22:11:00,84.1,68.7,29.89,East,79,8.0,8.0,60,0.00,CLR,,0.00,WeatherDisplay:10.37,2013-08-15 03:11:00,
2013-08-14 22:16:00,84.1,68.7,29.89,North,360,5.8,5.8,60,0.00,CLR,,0.00,WeatherDisplay:10.37,2013-08-15 03:16:00,
2013-08-14 22:21:00,84.1,68.7,29.89,ENE,57,4.6,4.6,60,0.00,CLR,,0.00,WeatherDisplay:10.37,2013-08-15 03:21:00,
2013-08-14 22:26:00,84.1,68.7,29.90,NNE,30,3.5,3.5,60,0.00,CLR,,0.00,WeatherDisplay:10.37,2013-08-15 03:26:00,
2013-08-14 22:31:00,84.1,69.2,29.90,North,360,4.6,4.6,61,0.00,CLR,,0.00,WeatherDisplay:10.37,2013-08-15 03:31:00,
2013-08-14 22:36:00,84.1,69.2,29.90,NE,42,6.0,6.0,61,0.00,CLR,,0.00,WeatherDisplay:10.37,2013-08-15 03:36:00,
2013-08-14 22:41:00,84.0,69.1,29.90,North,5,6.9,6.9,61,0.00,CLR,,0.00,WeatherDisplay:10.37,2013-08-15 03:41:00,
2013-08-14 22:46:00,84.0,69.1,29.90,NE,55,2.3,2.3,61,0.00,CLR,,0.00,WeatherDisplay:10.37,2013-08-15 03:46:00,
2013-08-14 22:51:00,84.1,69.2,29.90,North,5,3.5,3.5,61,0.00,CLR,,0.00,WeatherDisplay:10.37,2013-08-15 03:51:00,
2013-08-14 22:56:00,84.0,69.6,29.90,NE,49,1.0,1.2,62,0.00,CLR,,0.00,WeatherDisplay:10.37,2013-08-15 03:56:00,
2013-08-14 23:01:00,83.9,69.5,29.90,NE,46,10.4,10.4,62,0.00,CLR,,0.00,WeatherDisplay:10.37,2013-08-15 04:01:00,
2013-08-14 23:06:00,83.8,69.4,29.90,NNE,32,6.9,6.9,62,0.00,CLR,,0.00,WeatherDisplay:10.37,2013-08-15 04:06:00,
2013-08-14 23:11:00,83.8,69.4,29.90,NE,53,3.5,3.5,62,0.00,CLR,,0.00,WeatherDisplay:10.37,2013-08-15 04:11:00,
2013-08-14 23:16:00,83.8,69.4,29.91,ENE,58,3.5,3.5,62,0.00,CLR,,0.00,WeatherDisplay:10.37,2013-08-15 04:16:00,
2013-08-14 23:21:00,83.7,69.3,29.91,NNE,26,2.3,2.3,62,0.00,CLR,,0.00,WeatherDisplay:10.37,2013-08-15 04:21:00,
2013-08-14 23:26:00,83.6,69.2,29.91,ENE,61,3.5,3.5,62,0.00,CLR,,0.00,WeatherDisplay:10.37,2013-08-15 04:26:00,
2013-08-14 23:31:00,83.6,69.7,29.91,ENE,58,3.5,3.5,63,0.00,CLR,,0.00,WeatherDisplay:10.37,2013-08-15 04:31:00,
2013-08-14 23:36:00,83.5,69.6,29.91,North,10,3.5,3.5,63,0.00,CLR,,0.00,WeatherDisplay:10.37,2013-08-15 04:36:00,
2013-08-14 23:41:00,83.4,69.5,29.91,ENE,70,2.3,0.0,63,0.00,CLR,,0.00,WeatherDisplay:10.37,2013-08-15 04:41:00,
2013-08-14 23:46:00,83.3,69.4,29.91,ENE,71,6.9,6.9,63,0.00,CLR,,0.00,WeatherDisplay:10.37,2013-08-15 04:46:00,
2013-08-14 23:51:00,83.3,69.4,29.91,NNE,18,3.5,3.5,63,0.00,CLR,,0.00,WeatherDisplay:10.37,2013-08-15 04:51:00,
2013-08-14 23:56:00,83.2,69.3,29.91,ENE,69,4.6,4.6,63,0.00,CLR,,0.00,WeatherDisplay:10.37,2013-08-15 04:56:00,